Year,Month,Day,Hour,Minute,Value (Times are PST for temperature in C)
2015,09,23,00,00,12.60
2015,09,23,00,01,12.60
2015,09,23,00,02,12.60
2015,09,23,00,03,12.60
2015,09,23,00,04,12.70
2015,09,23,00,05,12.60
2015,09,23,00,06,12.60
2015,09,23,00,07,12.60
2015,09,23,00,08,12.60
2015,09,23,00,09,12.60
2015,09,23,00,10,12.60
2015,09,23,00,11,12.60
2015,09,23,00,12,12.60
2015,09,23,00,13,12.60
2015,09,23,00,14,12.50
2015,09,23,00,15,12.50
2015,09,23,00,16,12.50
2015,09,23,00,17,12.50
2015,09,23,00,18,12.40
2015,09,23,00,19,12.40
2015,09,23,00,20,12.40
2015,09,23,00,21,12.40
2015,09,23,00,22,12.40
2015,09,23,00,23,12.40
2015,09,23,00,24,12.50
2015,09,23,00,25,12.50
2015,09,23,00,26,12.50
2015,09,23,00,27,12.50
2015,09,23,00,28,12.50
2015,09,23,00,29,12.50
2015,09,23,00,30,12.50
2015,09,23,00,31,12.50
2015,09,23,00,32,12.50
2015,09,23,00,33,12.60
2015,09,23,00,34,12.60
2015,09,23,00,35,12.60
2015,09,23,00,36,12.60
2015,09,23,00,37,12.60
2015,09,23,00,38,12.60
2015,09,23,00,39,12.50
2015,09,23,00,40,12.50
2015,09,23,00,41,12.50
2015,09,23,00,42,12.50
2015,09,23,00,43,12.50
2015,09,23,00,44,12.40
2015,09,23,00,45,12.40
2015,09,23,00,46,12.40
2015,09,23,00,47,12.40
2015,09,23,00,48,12.40
2015,09,23,00,49,12.40
2015,09,23,00,50,12.40
2015,09,23,00,51,12.30
2015,09,23,00,52,12.30
2015,09,23,00,53,12.30
2015,09,23,00,54,12.30
2015,09,23,00,55,12.30
2015,09,23,00,56,12.30
2015,09,23,00,57,12.40
2015,09,23,00,58,12.40
2015,09,23,00,59,12.40
2015,09,23,01,00,12.40
2015,09,23,01,01,12.40
2015,09,23,01,02,12.40
2015,09,23,01,03,12.40
2015,09,23,01,04,12.40
2015,09,23,01,05,12.40
2015,09,23,01,06,12.40
2015,09,23,01,07,12.40
2015,09,23,01,08,12.40
2015,09,23,01,09,12.40
2015,09,23,01,10,12.40
2015,09,23,01,11,12.40
2015,09,23,01,12,12.40
2015,09,23,01,13,12.40
2015,09,23,01,14,12.40
2015,09,23,01,15,12.40
2015,09,23,01,16,12.40
2015,09,23,01,17,12.40
2015,09,23,01,18,12.40
2015,09,23,01,19,12.40
2015,09,23,01,20,12.40
2015,09,23,01,21,12.40
2015,09,23,01,22,12.40
2015,09,23,01,23,12.40
2015,09,23,01,24,12.40
2015,09,23,01,25,12.40
2015,09,23,01,26,12.50
2015,09,23,01,27,12.50
2015,09,23,01,28,12.50
2015,09,23,01,29,12.60
2015,09,23,01,30,12.60
2015,09,23,01,31,12.60
2015,09,23,01,32,12.60
2015,09,23,01,33,12.60
2015,09,23,01,34,12.60
2015,09,23,01,35,12.60
2015,09,23,01,36,12.70
2015,09,23,01,37,12.70
2015,09,23,01,38,12.70
2015,09,23,01,39,12.70
2015,09,23,01,40,12.70
2015,09,23,01,41,12.70
2015,09,23,01,42,12.70
2015,09,23,01,43,12.70
2015,09,23,01,44,12.70
2015,09,23,01,45,12.70
2015,09,23,01,46,12.70
2015,09,23,01,47,12.70
2015,09,23,01,48,12.70
2015,09,23,01,49,12.70
2015,09,23,01,50,12.70
2015,09,23,01,51,12.70
2015,09,23,01,52,12.70
2015,09,23,01,53,12.70
2015,09,23,01,54,12.70
2015,09,23,01,55,12.70
2015,09,23,01,56,12.70
2015,09,23,01,57,12.70
2015,09,23,01,58,12.70
2015,09,23,01,59,12.60
2015,09,23,02,00,12.60
2015,09,23,02,01,12.60
2015,09,23,02,02,12.60
2015,09,23,02,03,12.60
2015,09,23,02,04,12.60
2015,09,23,02,05,12.60
2015,09,23,02,06,12.60
2015,09,23,02,07,12.60
2015,09,23,02,08,12.60
2015,09,23,02,09,12.60
2015,09,23,02,10,12.60
2015,09,23,02,11,12.60
2015,09,23,02,12,12.70
2015,09,23,02,13,12.70
2015,09,23,02,14,12.70
2015,09,23,02,15,12.70
2015,09,23,02,16,12.70
2015,09,23,02,17,12.70
2015,09,23,02,18,12.60
2015,09,23,02,19,12.60
2015,09,23,02,20,12.60
2015,09,23,02,21,12.60
2015,09,23,02,22,12.60
2015,09,23,02,23,12.60
2015,09,23,02,24,12.60
2015,09,23,02,25,12.60
2015,09,23,02,26,12.60
2015,09,23,02,27,12.60
2015,09,23,02,28,12.50
2015,09,23,02,29,12.50
2015,09,23,02,30,12.50
2015,09,23,02,31,12.50
2015,09,23,02,32,12.40
2015,09,23,02,33,12.40
2015,09,23,02,34,12.40
2015,09,23,02,35,12.40
2015,09,23,02,36,12.40
2015,09,23,02,37,12.40
2015,09,23,02,38,12.40
2015,09,23,02,39,12.40
2015,09,23,02,40,12.40
2015,09,23,02,41,12.40
2015,09,23,02,42,12.40
2015,09,23,02,43,12.40
2015,09,23,02,44,12.40
2015,09,23,02,45,12.40
2015,09,23,02,46,12.40
2015,09,23,02,47,12.50
2015,09,23,02,48,12.50
2015,09,23,02,49,12.50
2015,09,23,02,50,12.60
2015,09,23,02,51,12.60
2015,09,23,02,52,12.60
2015,09,23,02,53,12.60
2015,09,23,02,54,12.60
2015,09,23,02,55,12.60
2015,09,23,02,56,12.60
2015,09,23,02,57,12.60
2015,09,23,02,58,12.60
2015,09,23,02,59,12.60
2015,09,23,03,00,12.60
2015,09,23,03,01,12.60
2015,09,23,03,02,12.60
2015,09,23,03,03,12.60
2015,09,23,03,04,12.60
2015,09,23,03,05,12.60
2015,09,23,03,06,12.60
2015,09,23,03,07,12.60
2015,09,23,03,08,12.60
2015,09,23,03,09,12.60
2015,09,23,03,10,12.60
2015,09,23,03,11,12.60
2015,09,23,03,12,12.60
2015,09,23,03,13,12.60
2015,09,23,03,14,12.60
2015,09,23,03,15,12.50
2015,09,23,03,16,12.50
2015,09,23,03,17,12.50
2015,09,23,03,18,12.40
2015,09,23,03,19,12.40
2015,09,23,03,20,12.40
2015,09,23,03,21,12.40
2015,09,23,03,22,12.30
2015,09,23,03,23,12.30
2015,09,23,03,24,12.30
2015,09,23,03,25,12.30
2015,09,23,03,26,12.30
2015,09,23,03,27,12.30
2015,09,23,03,28,12.30
2015,09,23,03,29,12.30
2015,09,23,03,30,12.30
2015,09,23,03,31,12.30
2015,09,23,03,32,12.30
2015,09,23,03,33,12.30
2015,09,23,03,34,12.30
2015,09,23,03,35,12.30
2015,09,23,03,36,12.30
2015,09,23,03,37,12.30
2015,09,23,03,38,12.30
2015,09,23,03,39,12.30
2015,09,23,03,40,12.30
2015,09,23,03,41,12.30
2015,09,23,03,42,12.20
2015,09,23,03,43,12.20
2015,09,23,03,44,12.20
2015,09,23,03,45,12.20
2015,09,23,03,46,12.20
2015,09,23,03,47,12.20
2015,09,23,03,48,12.20
2015,09,23,03,49,12.20
2015,09,23,03,50,12.20
2015,09,23,03,51,12.20
2015,09,23,03,52,12.20
2015,09,23,03,53,12.20
2015,09,23,03,54,12.20
2015,09,23,03,55,12.20
2015,09,23,03,56,12.20
2015,09,23,03,57,12.20
2015,09,23,03,58,12.20
2015,09,23,03,59,12.20
2015,09,23,04,00,12.20
2015,09,23,04,01,12.20
2015,09,23,04,02,12.20
2015,09,23,05,02,12.10
2015,09,23,05,03,12.10
2015,09,23,05,04,12.10
2015,09,23,05,05,12.10
2015,09,23,05,06,12.10
2015,09,23,05,07,12.10
2015,09,23,05,08,12.20
2015,09,23,05,09,12.20
2015,09,23,05,10,12.20
2015,09,23,05,11,12.20
2015,09,23,05,12,12.20
2015,09,23,05,13,12.30
2015,09,23,05,14,12.30
2015,09,23,05,15,12.30
2015,09,23,05,16,12.30
2015,09,23,05,17,12.30
2015,09,23,05,18,12.30
2015,09,23,05,19,12.30
2015,09,23,05,20,12.30
2015,09,23,05,21,12.30
2015,09,23,05,22,12.20
2015,09,23,05,23,12.20
2015,09,23,05,24,12.20
2015,09,23,05,25,12.20
2015,09,23,05,26,12.20
2015,09,23,05,27,12.20
2015,09,23,05,28,12.20
2015,09,23,05,29,12.20
2015,09,23,05,30,12.20
2015,09,23,05,31,12.20
2015,09,23,05,32,12.20
2015,09,23,05,33,12.20
2015,09,23,05,34,12.20
2015,09,23,05,35,12.20
2015,09,23,05,36,12.20
2015,09,23,05,37,12.20
2015,09,23,05,38,12.20
2015,09,23,05,39,12.20
2015,09,23,05,40,12.20
2015,09,23,05,41,12.20
2015,09,23,05,42,12.20
2015,09,23,05,43,12.20
2015,09,23,05,44,12.30
2015,09,23,05,45,12.30
2015,09,23,05,46,12.30
2015,09,23,05,47,12.30
2015,09,23,05,48,12.30
2015,09,23,05,49,12.30
2015,09,23,05,50,12.20
2015,09,23,05,51,12.20
2015,09,23,05,52,12.20
2015,09,23,05,53,12.20
2015,09,23,05,54,12.20
2015,09,23,05,55,12.20
2015,09,23,05,56,12.20
2015,09,23,05,57,12.20
2015,09,23,05,58,12.20
2015,09,23,05,59,12.20
2015,09,23,06,00,12.20
2015,09,23,06,01,12.20
2015,09,23,06,02,12.30
2015,09,23,06,03,12.30
2015,09,23,06,04,12.30
2015,09,23,06,05,12.30
2015,09,23,06,06,12.30
2015,09,23,06,07,12.30
2015,09,23,06,08,12.40
2015,09,23,06,09,12.40
2015,09,23,06,10,12.40
2015,09,23,06,11,12.40
2015,09,23,06,12,12.40
2015,09,23,06,13,12.40
2015,09,23,06,14,12.40
2015,09,23,06,15,12.40
2015,09,23,06,16,12.40
2015,09,23,06,17,12.40
2015,09,23,06,18,12.40
2015,09,23,06,19,12.30
2015,09,23,06,20,12.30
2015,09,23,06,21,12.30
2015,09,23,06,22,12.30
2015,09,23,06,23,12.30
2015,09,23,06,24,12.20
2015,09,23,06,25,12.20
2015,09,23,06,26,12.20
2015,09,23,06,27,12.20
2015,09,23,06,28,12.20
2015,09,23,06,29,12.20
2015,09,23,06,30,12.20
2015,09,23,06,31,12.20
2015,09,23,06,32,12.20
2015,09,23,06,33,12.20
2015,09,23,06,34,12.20
2015,09,23,06,35,12.20
2015,09,23,06,36,12.20
2015,09,23,06,37,12.20
2015,09,23,06,38,12.20
2015,09,23,06,39,12.20
2015,09,23,06,40,12.20
2015,09,23,06,41,12.10
2015,09,23,06,42,12.10
2015,09,23,06,43,12.10
2015,09,23,06,44,12.10
2015,09,23,06,45,12.10
2015,09,23,06,46,12.10
2015,09,23,06,47,12.10
2015,09,23,06,48,12.10
2015,09,23,06,49,12.10
2015,09,23,06,50,12.10
2015,09,23,06,51,12.10
2015,09,23,06,52,12.10
2015,09,23,06,53,12.00
2015,09,23,06,54,12.00
2015,09,23,06,55,12.00
2015,09,23,06,56,12.00
2015,09,23,06,57,12.00
2015,09,23,06,58,12.00
2015,09,23,06,59,12.00
2015,09,23,07,00,12.00
2015,09,23,07,01,12.00
2015,09,23,07,02,12.00
2015,09,23,07,03,12.00
2015,09,23,07,04,12.00
2015,09,23,07,05,12.00
2015,09,23,07,06,12.00
2015,09,23,07,07,12.00
2015,09,23,07,08,12.00
2015,09,23,07,09,12.00
2015,09,23,07,10,12.00
2015,09,23,07,11,12.00
2015,09,23,07,12,11.90
2015,09,23,07,13,11.90
2015,09,23,07,14,11.90
2015,09,23,07,15,11.90
2015,09,23,07,16,11.90
2015,09,23,07,17,11.90
2015,09,23,07,18,11.90
2015,09,23,07,19,11.90
2015,09,23,07,20,11.90
2015,09,23,07,21,11.90
2015,09,23,07,22,11.90
2015,09,23,07,23,11.90
2015,09,23,07,24,11.90
2015,09,23,07,25,11.90
2015,09,23,07,26,11.90
2015,09,23,07,27,11.90
2015,09,23,07,28,11.90
2015,09,23,07,29,11.90
2015,09,23,07,30,11.90
2015,09,23,07,31,11.90
2015,09,23,07,32,11.90
2015,09,23,07,33,11.90
2015,09,23,07,34,11.90
2015,09,23,07,35,11.90
2015,09,23,07,36,11.90
2015,09,23,07,37,11.90
2015,09,23,07,38,11.90
2015,09,23,07,39,11.90
2015,09,23,07,40,11.90
2015,09,23,07,41,11.90
2015,09,23,07,42,11.90
2015,09,23,07,43,11.90
2015,09,23,07,44,11.90
2015,09,23,07,45,11.90
2015,09,23,07,46,11.90
2015,09,23,07,47,11.90
2015,09,23,07,48,11.90
2015,09,23,07,49,11.90
2015,09,23,07,50,11.90
2015,09,23,07,51,11.90
2015,09,23,07,52,12.00
2015,09,23,07,53,12.00
2015,09,23,07,54,12.00
2015,09,23,07,55,12.00
2015,09,23,07,56,11.90
2015,09,23,07,57,11.90
2015,09,23,07,58,11.90
2015,09,23,07,59,11.90
2015,09,23,08,00,11.90
2015,09,23,08,01,11.90
2015,09,23,08,02,11.90
2015,09,23,08,03,11.90
2015,09,23,08,04,11.90
2015,09,23,08,05,11.90
2015,09,23,08,06,11.90
2015,09,23,08,07,11.90
2015,09,23,08,08,11.80
2015,09,23,08,09,11.80
2015,09,23,08,10,11.80
2015,09,23,08,11,11.80
2015,09,23,08,12,11.80
2015,09,23,08,13,11.80
2015,09,23,08,14,11.80
2015,09,23,08,15,11.80
2015,09,23,08,16,11.80
2015,09,23,08,17,11.80
2015,09,23,08,18,11.80
2015,09,23,08,19,11.80
2015,09,23,08,20,11.80
2015,09,23,08,21,11.80
2015,09,23,08,22,11.80
2015,09,23,08,23,11.80
2015,09,23,08,24,11.80
2015,09,23,08,25,11.90
2015,09,23,08,26,11.90
2015,09,23,08,27,11.90
2015,09,23,08,28,11.90
2015,09,23,08,29,11.90
2015,09,23,08,30,11.90
2015,09,23,08,31,11.90
2015,09,23,08,32,11.90
2015,09,23,08,33,11.90
2015,09,23,08,34,11.90
2015,09,23,08,35,11.90
2015,09,23,08,36,11.90
2015,09,23,08,37,11.90
2015,09,23,08,38,11.80
2015,09,23,08,39,11.80
2015,09,23,08,40,11.80
2015,09,23,08,41,11.80
2015,09,23,08,42,11.80
2015,09,23,08,43,11.80
2015,09,23,08,44,11.80
2015,09,23,08,45,11.80
2015,09,23,08,46,11.80
2015,09,23,08,47,11.80
2015,09,23,08,48,11.80
2015,09,23,08,49,11.80
2015,09,23,08,50,11.90
2015,09,23,08,51,11.90
2015,09,23,08,52,11.90
2015,09,23,08,53,11.90
2015,09,23,08,54,11.90
2015,09,23,08,55,11.90
2015,09,23,08,56,11.90
2015,09,23,08,57,11.90
2015,09,23,08,58,11.90
2015,09,23,08,59,11.90
2015,09,23,09,00,11.80
2015,09,23,09,01,11.80
2015,09,23,09,02,11.80
2015,09,23,09,03,11.80
2015,09,23,09,04,11.80
2015,09,23,09,05,11.80
2015,09,23,09,06,11.80
2015,09,23,09,07,11.80
2015,09,23,09,08,11.80
2015,09,23,09,09,11.80
2015,09,23,09,10,11.80
2015,09,23,09,11,11.80
2015,09,23,09,12,11.80
2015,09,23,09,13,11.80
2015,09,23,09,14,11.80
2015,09,23,09,15,11.80
2015,09,23,09,16,11.80
2015,09,23,09,17,11.80
2015,09,23,09,18,11.80
2015,09,23,09,19,11.80
2015,09,23,09,20,11.80
2015,09,23,09,21,11.80
2015,09,23,09,22,11.80
2015,09,23,09,23,11.70
2015,09,23,09,24,11.70
2015,09,23,09,25,11.70
2015,09,23,09,26,11.70
2015,09,23,09,27,11.70
2015,09,23,09,28,11.70
2015,09,23,09,29,11.70
2015,09,23,09,30,11.70
2015,09,23,09,31,11.70
2015,09,23,09,32,11.70
2015,09,23,09,33,11.70
2015,09,23,09,34,11.70
2015,09,23,09,35,11.70
2015,09,23,09,36,11.70
2015,09,23,09,37,11.60
2015,09,23,09,38,11.60
2015,09,23,09,39,11.60
2015,09,23,09,40,11.60
2015,09,23,09,41,11.60
2015,09,23,09,42,11.60
2015,09,23,09,43,11.50
2015,09,23,09,44,11.50
2015,09,23,09,45,11.50
2015,09,23,09,46,11.50
2015,09,23,09,47,11.50
2015,09,23,09,48,11.50
2015,09,23,09,49,11.50
2015,09,23,09,50,11.50
2015,09,23,09,51,11.50
2015,09,23,09,52,11.50
2015,09,23,09,53,11.50
2015,09,23,09,54,11.50
2015,09,23,09,55,11.50
2015,09,23,09,56,11.50
2015,09,23,09,57,11.50
2015,09,23,09,58,11.50
2015,09,23,09,59,11.50
2015,09,23,10,00,11.50
2015,09,23,10,01,11.50
2015,09,23,10,02,11.60
2015,09,23,10,03,11.60
2015,09,23,10,04,11.60
2015,09,23,10,05,11.60
2015,09,23,10,06,11.50
2015,09,23,10,07,11.50
2015,09,23,10,08,11.50
2015,09,23,10,09,11.50
2015,09,23,10,10,11.50
2015,09,23,10,11,11.50
2015,09,23,10,12,11.50
2015,09,23,10,13,11.50
2015,09,23,10,14,11.50
2015,09,23,10,15,11.50
2015,09,23,10,16,11.60
2015,09,23,10,17,11.60
2015,09,23,10,18,11.60
2015,09,23,10,19,11.60
2015,09,23,10,20,11.60
2015,09,23,10,21,11.60
2015,09,23,10,22,11.60
2015,09,23,10,23,11.60
2015,09,23,10,24,11.60
2015,09,23,10,25,11.60
2015,09,23,10,26,11.60
2015,09,23,10,27,11.60
2015,09,23,10,28,11.60
2015,09,23,10,29,11.60
2015,09,23,10,30,11.60
2015,09,23,10,31,11.60
2015,09,23,10,32,11.70
2015,09,23,10,33,11.70
2015,09,23,10,34,11.70
2015,09,23,10,35,11.70
2015,09,23,10,36,11.70
2015,09,23,10,37,11.70
2015,09,23,10,38,11.70
2015,09,23,10,39,11.70
2015,09,23,10,40,11.70
2015,09,23,10,41,11.70
2015,09,23,10,42,11.70
2015,09,23,10,43,11.70
2015,09,23,10,44,11.70
2015,09,23,10,45,11.70
2015,09,23,10,46,11.70
2015,09,23,10,47,11.70
2015,09,23,10,48,11.70
2015,09,23,10,49,11.70
2015,09,23,10,50,11.70
2015,09,23,10,51,11.70
2015,09,23,10,52,11.70
2015,09,23,10,53,11.70
2015,09,23,10,54,11.70
2015,09,23,10,55,11.70
2015,09,23,10,56,11.70
2015,09,23,10,57,11.70
2015,09,23,10,58,11.70
2015,09,23,10,59,11.70
2015,09,23,11,00,11.70
2015,09,23,11,01,11.70
2015,09,23,11,02,11.70
2015,09,23,11,03,11.70
2015,09,23,11,04,11.70
2015,09,23,11,05,11.70
2015,09,23,11,06,11.70
2015,09,23,11,07,11.70
2015,09,23,11,08,11.70
2015,09,23,11,09,11.70
2015,09,23,11,10,11.70
2015,09,23,11,11,11.70
2015,09,23,11,12,11.70
2015,09,23,11,13,11.70
2015,09,23,11,14,11.70
2015,09,23,11,15,11.70
2015,09,23,11,16,11.70
2015,09,23,11,17,11.70
2015,09,23,11,18,11.70
2015,09,23,11,19,11.70
2015,09,23,11,20,11.70
2015,09,23,11,21,11.70
2015,09,23,11,22,11.70
2015,09,23,11,23,11.70
2015,09,23,11,24,11.70
2015,09,23,11,25,11.70
2015,09,23,11,26,11.70
2015,09,23,11,27,11.70
2015,09,23,11,28,11.70
2015,09,23,11,29,11.80
2015,09,23,11,30,11.80
2015,09,23,11,31,11.80
2015,09,23,11,32,11.80
2015,09,23,11,33,11.90
2015,09,23,11,34,11.90
2015,09,23,11,35,11.90
2015,09,23,11,36,12.00
2015,09,23,11,37,12.00
2015,09,23,11,38,12.00
2015,09,23,11,39,12.10
2015,09,23,11,40,12.10
2015,09,23,11,41,12.10
2015,09,23,11,42,12.10
2015,09,23,11,43,12.20
2015,09,23,11,44,12.20
2015,09,23,11,45,12.20
2015,09,23,11,46,12.20
2015,09,23,11,47,12.20
2015,09,23,11,48,12.20
2015,09,23,11,49,12.20
2015,09,23,11,50,12.20
2015,09,23,11,51,12.20
2015,09,23,11,52,12.20
2015,09,23,11,53,12.20
2015,09,23,11,54,12.20
2015,09,23,11,55,12.20
2015,09,23,11,56,12.20
2015,09,23,11,57,12.20
2015,09,23,11,58,12.20
2015,09,23,11,59,12.20
2015,09,23,12,00,12.10
2015,09,23,12,01,12.10
2015,09,23,12,02,12.10
2015,09,23,12,03,12.10
2015,09,23,12,04,12.10
2015,09,23,12,05,12.10
2015,09,23,12,06,12.10
2015,09,23,12,07,12.00
2015,09,23,12,08,12.00
2015,09,23,12,09,12.00
2015,09,23,12,10,12.10
2015,09,23,12,11,12.00
2015,09,23,12,12,12.00
2015,09,23,12,13,12.00
2015,09,23,12,14,12.00
2015,09,23,12,15,12.00
2015,09,23,12,16,12.00
2015,09,23,12,17,12.00
2015,09,23,12,18,12.00
2015,09,23,12,19,12.00
2015,09,23,12,20,12.00
2015,09,23,12,21,11.90
2015,09,23,12,22,11.90
2015,09,23,12,23,11.90
2015,09,23,12,24,11.90
2015,09,23,12,25,11.90
2015,09,23,12,26,11.90
2015,09,23,12,27,11.90
2015,09,23,12,28,11.90
2015,09,23,12,29,11.90
2015,09,23,12,30,11.80
2015,09,23,12,31,11.80
2015,09,23,12,32,11.80
2015,09,23,12,33,11.80
2015,09,23,12,34,11.80
2015,09,23,12,35,11.80
2015,09,23,12,36,11.80
2015,09,23,12,37,11.80
2015,09,23,12,38,11.80
2015,09,23,12,39,11.80
2015,09,23,12,40,11.70
2015,09,23,12,41,11.70
2015,09,23,12,42,11.70
2015,09,23,12,43,11.70
2015,09,23,12,44,11.80
2015,09,23,12,45,11.80
2015,09,23,12,46,11.80
2015,09,23,12,47,11.80
2015,09,23,12,48,11.80
2015,09,23,12,49,11.80
2015,09,23,12,50,11.80
2015,09,23,12,51,11.70
2015,09,23,12,52,11.70
2015,09,23,12,53,11.70
2015,09,23,12,54,11.70
2015,09,23,12,55,11.70
2015,09,23,12,56,11.70
2015,09,23,12,57,11.70
2015,09,23,12,58,11.70
2015,09,23,12,59,11.70
2015,09,23,13,00,11.70
2015,09,23,13,01,11.70
2015,09,23,13,02,11.70
2015,09,23,13,03,11.70
2015,09,23,13,04,11.70
2015,09,23,13,05,11.70
2015,09,23,13,06,11.70
2015,09,23,13,07,11.70
2015,09,23,13,08,11.60
2015,09,23,13,09,11.60
2015,09,23,13,10,11.60
2015,09,23,13,11,11.60
2015,09,23,13,12,11.60
2015,09,23,13,13,11.60
2015,09,23,13,14,11.60
2015,09,23,13,15,11.60
2015,09,23,13,16,11.60
2015,09,23,13,17,11.60
2015,09,23,13,18,11.60
2015,09,23,13,19,11.60
2015,09,23,13,20,11.60
2015,09,23,13,21,11.60
2015,09,23,13,22,11.60
2015,09,23,13,23,11.60
2015,09,23,13,24,11.60
2015,09,23,13,25,11.60
2015,09,23,13,26,11.60
2015,09,23,13,27,11.60
2015,09,23,13,28,11.60
2015,09,23,13,29,11.60
2015,09,23,13,30,11.60
2015,09,23,13,31,11.60
2015,09,23,13,32,11.60
2015,09,23,13,33,11.60
2015,09,23,13,34,11.60
2015,09,23,13,35,11.60
2015,09,23,13,36,11.60
2015,09,23,13,37,11.60
2015,09,23,13,38,11.60
2015,09,23,13,39,11.70
2015,09,23,13,40,11.70
2015,09,23,13,41,11.70
2015,09,23,13,42,11.70
2015,09,23,13,43,11.70
2015,09,23,13,44,11.70
2015,09,23,13,45,11.70
2015,09,23,13,46,11.70
2015,09,23,13,47,11.70
2015,09,23,13,48,11.70
2015,09,23,13,49,11.70
2015,09,23,13,50,11.70
2015,09,23,13,51,11.70
2015,09,23,13,52,11.70
2015,09,23,13,53,11.70
2015,09,23,13,54,11.70
2015,09,23,13,55,11.70
2015,09,23,13,56,11.70
2015,09,23,13,57,11.70
2015,09,23,13,58,11.70
2015,09,23,13,59,11.70
2015,09,23,14,00,11.70
2015,09,23,14,01,11.70
2015,09,23,14,02,11.70
2015,09,23,14,03,11.70
2015,09,23,14,04,11.70
2015,09,23,14,05,11.70
2015,09,23,14,06,11.70
2015,09,23,14,07,11.70
2015,09,23,14,08,11.70
2015,09,23,14,09,11.70
2015,09,23,14,10,11.70
2015,09,23,14,11,11.70
2015,09,23,14,12,11.70
2015,09,23,14,13,11.70
2015,09,23,14,14,11.70
2015,09,23,14,15,11.70
2015,09,23,14,16,11.70
2015,09,23,14,17,11.70
2015,09,23,14,18,11.70
2015,09,23,14,19,11.70
2015,09,23,14,20,11.70
2015,09,23,14,21,11.70
2015,09,23,14,22,11.70
2015,09,23,14,23,11.70
2015,09,23,14,24,11.70
2015,09,23,14,25,11.70
2015,09,23,14,26,11.70
2015,09,23,14,27,11.70
2015,09,23,14,28,11.70
2015,09,23,14,29,11.70
2015,09,23,14,30,11.70
2015,09,23,14,31,11.70
2015,09,23,14,32,11.70
2015,09,23,14,33,11.70
2015,09,23,14,34,11.80
2015,09,23,14,35,11.80
2015,09,23,14,36,11.80
2015,09,23,14,37,11.80
2015,09,23,14,38,11.80
2015,09,23,14,39,11.80
2015,09,23,14,40,11.80
2015,09,23,14,41,11.80
2015,09,23,14,42,11.70
2015,09,23,14,43,11.70
2015,09,23,14,44,11.70
2015,09,23,14,45,11.70
2015,09,23,14,46,11.70
2015,09,23,14,47,11.70
2015,09,23,14,48,11.70
2015,09,23,14,49,11.70
2015,09,23,14,50,11.70
2015,09,23,14,51,11.70
2015,09,23,14,52,11.70
2015,09,23,14,53,11.60
2015,09,23,14,54,11.60
2015,09,23,14,55,11.60
2015,09,23,14,56,11.60
2015,09,23,14,57,11.60
2015,09,23,14,58,11.60
2015,09,23,14,59,11.60
2015,09,23,15,00,11.70
2015,09,23,15,01,11.70
2015,09,23,15,02,11.70
2015,09,23,15,03,11.70
2015,09,23,15,04,11.70
2015,09,23,15,05,11.70
2015,09,23,15,06,11.70
2015,09,23,15,07,11.70
2015,09,23,15,08,11.70
2015,09,23,15,09,11.70
2015,09,23,15,10,11.70
2015,09,23,15,11,11.70
2015,09,23,15,12,11.70
2015,09,23,15,13,11.70
2015,09,23,15,14,11.70
2015,09,23,15,15,11.70
2015,09,23,15,16,11.60
2015,09,23,15,17,11.70
2015,09,23,15,18,11.70
2015,09,23,15,19,11.70
2015,09,23,15,20,11.70
2015,09,23,15,21,11.70
2015,09,23,15,22,11.70
2015,09,23,15,23,11.70
2015,09,23,15,24,11.70
2015,09,23,15,25,11.70
2015,09,23,15,26,11.70
2015,09,23,15,27,11.70
2015,09,23,15,28,11.70
2015,09,23,15,29,11.70
2015,09,23,15,30,11.70
2015,09,23,15,31,11.70
2015,09,23,15,32,11.70
2015,09,23,15,33,11.70
2015,09,23,15,34,11.70
2015,09,23,15,35,11.70
2015,09,23,15,36,11.70
2015,09,23,15,37,11.70
2015,09,23,15,38,11.70
2015,09,23,15,39,11.70
2015,09,23,15,40,11.70
2015,09,23,15,41,11.70
2015,09,23,15,42,11.70
2015,09,23,15,43,11.70
2015,09,23,15,44,11.80
2015,09,23,15,45,11.70
2015,09,23,15,46,11.70
2015,09,23,15,47,11.70
2015,09,23,15,48,11.70
2015,09,23,15,49,11.70
2015,09,23,15,50,11.70
2015,09,23,15,51,11.70
2015,09,23,15,52,11.80
2015,09,23,15,53,11.70
2015,09,23,15,54,11.70
2015,09,23,15,55,11.70
2015,09,23,15,56,11.70
2015,09,23,15,57,11.70
2015,09,23,15,58,11.70
2015,09,23,15,59,11.70
2015,09,23,16,00,11.70
2015,09,23,16,01,11.80
2015,09,23,16,02,11.80
2015,09,23,16,03,11.80
2015,09,23,16,04,11.80
2015,09,23,16,05,11.80
2015,09,23,16,06,11.70
2015,09,23,16,07,11.70
2015,09,23,16,08,11.80
2015,09,23,16,09,11.80
2015,09,23,16,10,11.80
2015,09,23,16,11,11.80
2015,09,23,16,12,11.80
2015,09,23,16,13,11.80
2015,09,23,16,14,11.80
2015,09,23,16,15,11.80
2015,09,23,16,16,11.80
2015,09,23,16,17,11.80
2015,09,23,16,18,11.80
2015,09,23,16,19,11.80
2015,09,23,16,20,11.80
2015,09,23,16,21,11.80
2015,09,23,16,22,11.70
2015,09,23,16,23,11.70
2015,09,23,16,24,11.70
2015,09,23,16,25,11.70
2015,09,23,16,26,11.70
2015,09,23,16,27,11.70
2015,09,23,16,28,11.70
2015,09,23,16,29,11.70
2015,09,23,16,30,11.70
2015,09,23,16,31,11.70
2015,09,23,16,32,11.70
2015,09,23,16,33,11.70
2015,09,23,16,34,11.70
2015,09,23,16,35,11.70
2015,09,23,16,36,11.60
2015,09,23,16,37,11.60
2015,09,23,16,38,11.60
2015,09,23,16,39,11.60
2015,09,23,16,40,11.60
2015,09,23,16,41,11.50
2015,09,23,16,42,11.50
2015,09,23,16,43,11.50
2015,09,23,16,44,11.40
2015,09,23,16,45,11.40
2015,09,23,16,46,11.40
2015,09,23,16,47,11.40
2015,09,23,16,48,11.30
2015,09,23,16,49,11.30
2015,09,23,16,50,11.30
2015,09,23,16,51,11.30
2015,09,23,16,52,11.30
2015,09,23,16,53,11.30
2015,09,23,16,54,11.30
2015,09,23,16,55,11.30
2015,09,23,16,56,11.30
2015,09,23,16,57,11.30
2015,09,23,16,58,11.30
2015,09,23,16,59,11.30
2015,09,23,17,00,11.30
2015,09,23,17,01,11.30
2015,09,23,17,02,11.30
2015,09,23,17,03,11.30
2015,09,23,17,04,11.30
2015,09,23,17,05,11.30
2015,09,23,17,06,11.30
2015,09,23,17,07,11.30
2015,09,23,17,08,11.30
2015,09,23,17,09,11.30
2015,09,23,17,10,11.30
2015,09,23,17,11,11.30
2015,09,23,17,12,11.30
2015,09,23,17,13,11.30
2015,09,23,17,14,11.30
2015,09,23,17,15,11.30
2015,09,23,17,16,11.30
2015,09,23,17,17,11.30
2015,09,23,17,18,11.30
2015,09,23,17,19,11.30
2015,09,23,17,20,11.40
2015,09,23,17,21,11.40
2015,09,23,17,22,11.50
2015,09,23,17,23,11.50
2015,09,23,17,24,11.50
2015,09,23,17,25,11.60
2015,09,23,17,26,11.60
2015,09,23,17,27,11.60
2015,09,23,17,28,11.70
2015,09,23,17,29,11.70
2015,09,23,17,30,11.70
2015,09,23,17,31,11.70
2015,09,23,17,32,11.70
2015,09,23,17,33,11.70
2015,09,23,17,34,11.70
2015,09,23,17,35,11.70
2015,09,23,17,36,11.70
2015,09,23,17,37,11.70
2015,09,23,17,38,11.70
2015,09,23,17,39,11.70
2015,09,23,17,40,11.70
2015,09,23,17,41,11.70
2015,09,23,17,42,11.70
2015,09,23,17,43,11.70
2015,09,23,17,44,11.70
2015,09,23,17,45,11.70
2015,09,23,17,46,11.70
2015,09,23,17,47,11.60
2015,09,23,17,48,11.60
2015,09,23,17,49,11.60
2015,09,23,17,50,11.60
2015,09,23,17,51,11.60
2015,09,23,17,52,11.60
2015,09,23,17,53,11.60
2015,09,23,17,54,11.60
2015,09,23,17,55,11.60
2015,09,23,17,56,11.60
2015,09,23,17,57,11.60
2015,09,23,17,58,11.60
2015,09,23,17,59,11.60
2015,09,23,18,00,11.60
2015,09,23,18,01,11.60
2015,09,23,18,02,11.60
2015,09,23,18,03,11.60
2015,09,23,18,04,11.60
2015,09,23,18,05,11.50
2015,09,23,18,06,11.60
2015,09,23,18,07,11.50
2015,09,23,18,08,11.50
2015,09,23,18,09,11.50
2015,09,23,18,10,11.50
2015,09,23,18,11,11.50
2015,09,23,18,12,11.50
2015,09,23,18,13,11.50
2015,09,23,18,14,11.50
2015,09,23,18,15,11.50
2015,09,23,18,16,11.50
2015,09,23,18,17,11.50
2015,09,23,18,18,11.50